Weather History for Valdosta Regional, GA

Change the Weather History Date:

Wednesday, November 21, 2012

  Actual Average Record
Temperature  
Mean Temperature 61 °F 58 °F  
Max Temperature 75 °F 71 °F 84 °F (2011)
Min Temperature 46 °F 46 °F 30 °F (2000)
Degree Days  
Heating Degree Days 4 7  
Month to date heating degree days 98 111  
Since 1 July heating degree days 129 154  
Growing Degree Days 10 (Base 50)    
Moisture  
Dew Point 45 °F    
Average Humidity 60    
Maximum Humidity 89    
Minimum Humidity 31    
Precipitation  
Precipitation 0.00 in 0.09 in 1.06 in (1996)
Month to date precipitation 0.45 1.67  
Year to date precipitation 39.95 46.54  
Sea Level Pressure  
Sea Level Pressure 30.12 in    
Wind  
Wind Speed 3 mph (NNE)    
Max Wind Speed 14 mph    
Max Gust Speed 20 mph    
Visibility 9 miles    
Events      
T = Trace of Precipitation, MM = Missing Value Source: NWS Daily Summary

Daily Weather History Graph

Daily Weather History Graph

Search for Another Location

Airport:

Trip Planner

Search our weather history database for the weather conditions in past years. The results will help you decide how hot, cold, wet, or windy it might be!

Date:

Astronomy

Nov. 21, 2012 Rise Set
Actual Time 7:05 AM EST 5:32 PM EST
Civil Twilight 6:39 AM EST 5:58 PM EST
Nautical Twilight 6:09 AM EST 6:28 PM EST
Astronomical Twilight 5:40 AM EST 6:57 PM EST
Moon 1:26 PM EST (11/21) 12:48 AM EST (11/21)
Length of Visible Light 11h 19m
Length of Day
10h 27m
First Quarter, 61% of the Moon is Illuminated
Nov 21
First Quarter
Nov 28
Full
Dec 6
Last Quarter
Dec 13
New
Dec 20
First Quarter

Hourly Weather History & Observations

Time (EST) Temp. Dew Point Humidity Pressure Visibility Wind Dir Wind Speed Gust Speed Precip Events Conditions
12:53 AM 52.0 °F 46.9 °F 83% 30.11 in 10.0 mi Calm Calm - N/A   Clear
1:53 AM 52.0 °F 48.0 °F 86% 30.10 in 10.0 mi Calm Calm - N/A   Partly Cloudy
2:53 AM 54.0 °F 50.0 °F 86% 30.10 in 10.0 mi Calm Calm - N/A   Partly Cloudy
3:53 AM 54.0 °F 48.9 °F 83% 30.10 in 10.0 mi Calm Calm - N/A   Clear
4:53 AM 51.1 °F 46.9 °F 86% 30.11 in 4.0 mi Calm Calm - N/A   Clear
5:42 AM 50.0 °F 44.6 °F 82% 30.09 in 2.5 mi Calm Calm - N/A   Haze
5:53 AM 48.9 °F 45.0 °F 86% 30.11 in 2.5 mi Calm Calm - N/A   Clear
6:39 AM 48.2 °F 44.6 °F 87% 30.09 in 5.0 mi Calm Calm - N/A   Clear
6:53 AM 48.9 °F 45.0 °F 86% 30.12 in 10.0 mi Calm Calm - N/A   Clear
7:53 AM 52.0 °F 48.0 °F 86% 30.13 in 10.0 mi Calm Calm - N/A   Clear
8:53 AM 59.0 °F 50.0 °F 72% 30.14 in 10.0 mi North 4.6 mph - N/A   Clear
9:53 AM 64.9 °F 48.0 °F 54% 30.16 in 10.0 mi Variable 4.6 mph - N/A   Clear
10:53 AM 69.1 °F 46.9 °F 45% 30.14 in 10.0 mi Calm Calm - N/A   Clear
11:53 AM 72.0 °F 44.1 °F 37% 30.12 in 10.0 mi NNE 6.9 mph - N/A   Clear
12:53 PM 72.0 °F 43.0 °F 35% 30.11 in 10.0 mi Variable 6.9 mph 18.4 mph N/A   Mostly Cloudy
1:53 PM 75.0 °F 43.0 °F 32% 30.09 in 10.0 mi North 8.1 mph - N/A   Partly Cloudy
2:53 PM 73.9 °F 44.1 °F 34% 30.08 in 10.0 mi NE 11.5 mph - N/A   Partly Cloudy
3:53 PM 73.0 °F 46.0 °F 38% 30.09 in 10.0 mi NE 6.9 mph - N/A   Partly Cloudy
4:53 PM 70.0 °F 46.0 °F 42% 30.10 in 10.0 mi NNE 9.2 mph - N/A   Clear
5:53 PM 66.0 °F 45.0 °F 47% 30.12 in 10.0 mi NNE 5.8 mph - N/A   Clear
6:53 PM 55.9 °F 45.0 °F 67% 30.12 in 10.0 mi Calm Calm - N/A   Clear
7:53 PM 53.1 °F 44.1 °F 71% 30.14 in 10.0 mi Calm Calm - N/A   Clear
8:53 PM 51.1 °F 43.0 °F 74% 30.16 in 10.0 mi Calm Calm - N/A   Clear
9:53 PM 48.0 °F 43.0 °F 83% 30.15 in 10.0 mi Calm Calm - N/A   Clear
10:53 PM 46.9 °F 41.0 °F 80% 30.16 in 10.0 mi Calm Calm - N/A   Clear
11:53 PM 46.9 °F 41.0 °F 80% 30.17 in 10.0 mi Calm Calm - N/A   Clear